Location: Newark
(45.7425°N, 0.7617°W)
Time: 15:21:18
(UTC+00:00)

TIGRISAT - Visible Passes

Search period start: 04 April 2020 00:00
Search period end: 14 April 2020 00:00
Orbit: 606 x 688 km, 97.7° (Epoch: 04 April)

Date Brightness Start Highest point End Pass type
(mag) Time Alt. Az. Time Alt. Az. Time Alt. Az.
04 Apr ? 19:24:47 10° NE 19:27:44 17° E 19:29:51 13° ESE visible
04 Apr ? 21:00:17 10° N 21:04:47 55° WNW 21:07:36 21° SW visible
05 Apr ? 19:49:38 10° NNE 19:53:38 29° E 19:55:57 19° SE visible
05 Apr ? 21:26:16 10° N 21:30:17 31° WNW 21:33:41 13° SW visible
06 Apr ? 20:14:57 10° NNE 20:19:26 52° E 20:22:02 23° SSE visible
06 Apr ? 21:52:32 10° NNW 21:55:42 19° WNW 21:58:48 10° WSW visible
07 Apr ? 20:40:33 10° NNE 20:45:07 85° WNW 20:48:08 20° SSW visible
07 Apr ? 22:19:41 10° NW 22:21:00 11° WNW 22:22:20 10° WNW visible
08 Apr ? 19:30:32 10° NE 19:33:46 19° E 19:36:29 12° SE visible
08 Apr ? 21:06:21 10° N 21:10:42 47° WNW 21:14:13 14° SW visible
09 Apr ? 19:55:32 10° NNE 19:59:38 33° E 20:02:34 16° SSE visible
09 Apr ? 21:32:23 10° N 21:36:11 27° WNW 21:39:54 10° WSW visible
10 Apr ? 20:20:55 10° NNE 20:25:24 61° E 20:28:38 17° S visible
10 Apr ? 21:58:47 10° NNW 22:01:34 16° WNW 22:04:18 10° W visible
11 Apr ? 20:46:33 10° N 20:51:03 74° WNW 20:54:43 15° SSW visible
12 Apr ? 19:36:18 10° NE 19:39:46 22° E 19:43:03 10° SE visible
12 Apr ? 21:12:24 10° N 21:16:37 40° WNW 21:20:42 10° SW visible
13 Apr ? 20:01:25 10° NNE 20:05:36 38° E 20:09:07 13° SSE visible
13 Apr ? 21:38:30 10° NNW 21:42:04 24° WNW 21:45:32 10° WSW visible
